Dubrovnik, Croatia

2:16 PM CEST on August 21, 2018 (GMT +0200)
Cilipi

Weather History for LDDU - December, 2017

Change the Weather History Date:

Sunday, December 17, 2017

  Actual Average (LYTV) Record (LYTV)
Temperature  
Mean Temperature 46 °F -  
Max Temperature 50 °F 53 °F 86 °F (2000)
Min Temperature 41 °F 36 °F 26 °F (2010)
Degree Days  
Heating Degree Days 20    
Moisture  
Dew Point 34 °F    
Average Humidity 67    
Maximum Humidity 100    
Minimum Humidity 34    
Precipitation  
Precipitation 0.12 in - - ()
Sea Level Pressure  
Sea Level Pressure 29.85 in    
Wind  
Wind Speed 14 mph ()    
Max Wind Speed 29 mph    
Max Gust Speed 36 mph    
Visibility 7.5 miles    
Events Rain , Thunderstorm    
Averages and records for this station are not official NWS values.
T = Trace of Precipitation, MM = Missing Value Source: Averaged Metar Reports

Daily Weather History Graph

Daily Weather History Graph

Search for Another Location

Airport or City:

Astronomy

Dec. 17, 2017 Rise Set
Actual Time 7:11 AM CET 4:14 PM CET
Civil Twilight 6:39 AM CET 4:47 PM CET
Nautical Twilight 6:03 AM CET 5:22 PM CET
Astronomical Twilight 5:29 AM CET 5:57 PM CET
Moon 6:05 AM CET (12/17) 4:01 PM CET (12/17)
Length of Visible Light 10h 08m
Length of Day
9h 03m
Waning Crescent, 1% of the Moon is Illuminated
Dec 17
Waning Crescent
Dec 18
New
Dec 26
First Quarter
Jan 2
Full
Jan 8
Last Quarter

Hourly Weather History & Observations

Time (CET) Temp. Windchill Dew Point Humidity Pressure Visibility Wind Dir Wind Speed Gust Speed Precip Events Conditions
12:00 AM 50.0 °F - 48.2 °F 94% 29.74 in 6.2 mi East 10.4 mph - N/A Rain , Thunderstorm Light Thunderstorms and Rain
12:30 AM 42.8 °F 38.6 °F 42.8 °F 100% 29.77 in 6.2 mi NNE 6.9 mph - N/A Rain , Thunderstorm Light Thunderstorms and Rain
1:00 AM 45 °F - 44 °F 97% 29.79 in 12 mi East 8.9 mph - - Thunderstorm Light Thunderstorm
1:00 AM 44.6 °F 40.2 °F 44.6 °F 100% 29.77 in 6.2 mi East 8.1 mph - N/A   Overcast
1:30 AM 46.4 °F 42.9 °F 44.6 °F 93% 29.77 in 6.2 mi Variable 6.9 mph - N/A   Overcast
2:00 AM 44.6 °F 40.7 °F 44.6 °F 100% 29.77 in 6.2 mi East 6.9 mph - N/A   Scattered Clouds
2:30 AM 44.6 °F 41.4 °F 44.6 °F 100% 29.77 in 6.2 mi North 5.8 mph - N/A Rain Light Rain
3:00 AM 46.4 °F 41.9 °F 42.8 °F 87% 29.77 in 6.2 mi ENE 9.2 mph - N/A   Mostly Cloudy
3:30 AM 46.4 °F 41.5 °F 42.8 °F 87% 29.77 in 6.2 mi ENE 10.4 mph - N/A   Partly Cloudy
4:00 AM 47 °F - 41 °F 72% 29.79 in 19 mi NE 8.9 mph - -   Partly Cloudy
4:00 AM 46.4 °F 41.9 °F 41.0 °F 81% 29.77 in 6.2 mi ENE 9.2 mph - N/A   Scattered Clouds
4:30 AM 46.4 °F 42.9 °F 41.0 °F 81% 29.77 in 6.2 mi NE 6.9 mph - N/A   Mostly Cloudy
5:00 AM 46.4 °F 43.5 °F 41.0 °F 81% 29.77 in 6.2 mi ENE 5.8 mph - N/A   Mostly Cloudy
5:30 AM 46.4 °F 43.5 °F 41.0 °F 81% 29.77 in 6.2 mi NNE 5.8 mph - N/A Rain Light Rain
6:00 AM 44.6 °F 39.2 °F 41.0 °F 87% 29.77 in 6.2 mi NE 10.4 mph - N/A Rain Light Rain
6:30 AM 44.6 °F 37.4 °F 37.4 °F 76% 29.77 in 6.2 mi NNE 16.1 mph - N/A Rain Light Rain
7:00 AM 44.6 °F 38.8 °F 37.4 °F 76% 29.80 in 6.2 mi NNE 11.5 mph - N/A Rain Light Rain
7:30 AM 46.4 °F 40.7 °F 37.4 °F 71% 29.80 in 6.2 mi NNE 12.7 mph - N/A   Mostly Cloudy
8:00 AM 44.6 °F 37.4 °F 37.4 °F 76% 29.80 in 6.2 mi NNE 16.1 mph - N/A   Mostly Cloudy
8:30 AM 46.4 °F 39.0 °F 35.6 °F 66% 29.80 in 6.2 mi NNE 19.6 mph - N/A Thunderstorm Mostly Cloudy
9:00 AM 44.6 °F 36.6 °F 35.6 °F 71% 29.83 in 6.2 mi NNE 19.6 mph - N/A Rain Light Rain
9:30 AM 42.8 °F 34.5 °F 37.4 °F 81% 29.83 in 5.6 mi NNE 18.4 mph - N/A Rain Light Rain
10:00 AM 43 °F - 35 °F 66% 29.87 in 10 mi NNE 24.6 mph - - Rain Light Rain
10:00 AM 42.8 °F 33.1 °F 35.6 °F 76% 29.86 in 6.2 mi NNE 25.3 mph - N/A Rain Light Rain
11:00 AM 46.4 °F 38.7 °F 35.6 °F 66% 29.83 in 6.2 mi NNE 20.7 mph 32.2 mph N/A   Scattered Clouds
11:30 AM 46.4 °F 38.5 °F 35.6 °F 66% 29.83 in 6.2 mi NNE 21.9 mph - N/A   Scattered Clouds
12:00 PM 46.4 °F 38.3 °F 33.8 °F 62% 29.83 in 6.2 mi NNE 23.0 mph 34.5 mph N/A   Scattered Clouds
12:30 PM 44.6 °F 35.7 °F 33.8 °F 66% 29.83 in 6.2 mi NNE 24.2 mph - N/A   Scattered Clouds
1:00 PM 46 °F - 33 °F 49% 29.86 in 19 mi NNE 22.4 mph - -   Partly Cloudy
1:00 PM 46.4 °F 38.1 °F 32.0 °F 57% 29.83 in 6.2 mi NNE 24.2 mph - N/A   Mostly Cloudy
1:30 PM 46.4 °F 38.3 °F 32.0 °F 57% 29.86 in 6.2 mi NNE 23.0 mph - N/A Rain Light Rain
2:00 PM 44.6 °F 35.9 °F 32.0 °F 61% 29.86 in 6.2 mi NNE 23.0 mph - N/A Rain Light Rain
2:30 PM 44.6 °F 35.5 °F 32.0 °F 61% 29.86 in 6.2 mi NNE 25.3 mph - N/A   Partly Cloudy
3:00 PM 44.6 °F 35.7 °F 30.2 °F 57% 29.86 in 6.2 mi NNE 24.2 mph 35.7 mph N/A   Scattered Clouds
3:30 PM 44.6 °F 36.1 °F 30.2 °F 57% 29.86 in 6.2 mi NNE 21.9 mph 33.4 mph N/A   Scattered Clouds
4:00 PM 44 °F - 30 °F 46% 29.90 in 19 mi NNE 22.4 mph - - Rain Light Rain
4:00 PM 44.6 °F 36.1 °F 30.2 °F 57% 29.89 in 6.2 mi NNE 21.9 mph - N/A   Scattered Clouds
4:30 PM 44.6 °F 36.9 °F 30.2 °F 57% 29.89 in 6.2 mi NNE 18.4 mph - N/A Rain Light Rain
5:00 PM 44.6 °F 36.6 °F 28.4 °F 53% 29.89 in 6.2 mi NNE 19.6 mph 31.1 mph N/A   Partly Cloudy
5:30 PM 44.6 °F 36.4 °F 28.4 °F 53% 29.92 in 6.2 mi NNE 20.7 mph 33.4 mph N/A Rain Light Rain
6:00 PM 44.6 °F 35.7 °F 26.6 °F 49% 29.92 in - NNE 24.2 mph - N/A   Clear
6:30 PM 42.8 °F 33.3 °F 26.6 °F 53% 29.92 in - NNE 24.2 mph - N/A   Clear
7:00 PM 42.8 °F 32.9 °F 26.6 °F 53% 29.92 in - NNE 26.5 mph - N/A   Clear
7:30 PM 42.8 °F 32.7 °F 24.8 °F 49% 29.95 in - NNE 27.6 mph - N/A   Clear
8:00 PM 42.8 °F 32.5 °F 24.8 °F 49% 29.95 in 6.2 mi NNE 28.8 mph - N/A   Mostly Cloudy
8:30 PM 42.8 °F 32.7 °F 23.0 °F 46% 29.95 in 6.2 mi NNE 27.6 mph - N/A   Mostly Cloudy
9:00 PM 42.8 °F 32.9 °F 23.0 °F 46% 29.95 in 6.2 mi NNE 26.5 mph - N/A   Partly Cloudy
9:30 PM 42.8 °F 32.5 °F 23.0 °F 46% 29.98 in 6.2 mi NNE 28.8 mph - N/A   Partly Cloudy
10:00 PM 42 °F - 23 °F 34% 30.02 in 19 mi NNE 29.1 mph - -   Mostly Cloudy
10:00 PM 42.8 °F 32.5 °F 23.0 °F 46% 29.98 in 6.2 mi NNE 28.8 mph - N/A   Mostly Cloudy
10:30 PM 41.0 °F 30.2 °F 23.0 °F 49% 30.01 in 6.2 mi NNE 27.6 mph - N/A   Mostly Cloudy
11:00 PM 41.0 °F 30.5 °F 23.0 °F 49% 30.01 in - NNE 26.5 mph - N/A   Clear
11:30 PM 41.0 °F 30.2 °F 23.0 °F 49% 30.01 in - NNE 27.6 mph - N/A   Clear